Time,TemperatureF,DewpointF,PressureIn,WindDirection,WindDirectionDegrees,WindSpeedMPH,WindSpeedGustMPH,Humidity,HourlyPrecipIn,Conditions,Clouds,dailyrainin,SoftwareType,DateUTC
2013-05-04 00:01:00,46.4,45.1,29.54,NE,45,2.5,3.8,95,0.00,,,0.00,WUHU216HW,2013-05-04 05:01:00,
2013-05-04 00:06:00,46.3,44.9,29.54,North,0,4.3,5.4,95,0.00,,,0.00,WUHU216HW,2013-05-04 05:06:00,
2013-05-04 00:11:00,46.3,44.9,29.54,North,0,6.0,6.0,95,0.00,,,0.00,WUHU216HW,2013-05-04 05:11:00,
2013-05-04 00:16:00,46.3,44.9,29.54,North,0,4.5,6.0,95,0.00,,,0.00,WUHU216HW,2013-05-04 05:16:00,
2013-05-04 00:21:00,46.3,44.9,29.53,North,0,5.1,6.0,95,0.00,,,0.00,WUHU216HW,2013-05-04 05:21:00,
2013-05-04 00:26:00,46.3,44.9,29.54,NNE,23,4.5,5.1,95,0.00,,,0.00,WUHU216HW,2013-05-04 05:26:00,
2013-05-04 00:31:00,46.1,44.7,29.53,NNE,23,3.4,5.1,95,0.00,,,0.00,WUHU216HW,2013-05-04 05:31:00,
2013-05-04 00:36:00,46.1,44.7,29.53,SE,135,4.3,4.5,95,0.00,,,0.00,WUHU216HW,2013-05-04 05:36:00,
2013-05-04 00:41:00,46.1,44.7,29.53,NNE,23,4.7,4.9,95,0.00,,,0.00,WUHU216HW,2013-05-04 05:41:00,
2013-05-04 00:46:00,46.1,44.7,29.53,North,0,2.5,4.9,95,0.00,,,0.00,WUHU216HW,2013-05-04 05:46:00,
2013-05-04 00:51:00,46.1,44.7,29.53,North,0,3.1,4.7,95,0.00,,,0.00,WUHU216HW,2013-05-04 05:51:00,
2013-05-04 00:56:00,46.1,44.7,29.53,North,0,5.8,6.0,95,0.00,,,0.00,WUHU216HW,2013-05-04 05:56:00,
2013-05-04 01:01:00,46.1,44.7,29.53,North,0,3.6,6.0,95,0.00,,,0.00,WUHU216HW,2013-05-04 06:01:00,
2013-05-04 01:06:00,46.1,44.7,29.53,North,0,6.0,6.3,95,0.00,,,0.00,WUHU216HW,2013-05-04 06:06:00,
2013-05-04 01:11:00,46.1,44.7,29.52,North,0,5.1,6.3,95,0.00,,,0.00,WUHU216HW,2013-05-04 06:11:00,
2013-05-04 01:16:00,46.1,44.7,29.53,North,0,2.9,6.0,95,0.00,,,0.00,WUHU216HW,2013-05-04 06:16:00,
2013-05-04 01:21:00,46.1,44.7,29.53,NNE,23,5.4,5.4,95,0.00,,,0.00,WUHU216HW,2013-05-04 06:21:00,
2013-05-04 01:26:00,46.3,44.6,29.53,NE,45,1.3,5.4,94,0.00,,,0.00,WUHU216HW,2013-05-04 06:26:00,
2013-05-04 01:31:00,46.3,44.6,29.54,NE,45,2.2,5.4,94,0.00,,,0.00,WUHU216HW,2013-05-04 06:31:00,
2013-05-04 01:36:00,46.3,44.6,29.53,NNE,23,5.6,5.6,94,0.00,,,0.00,WUHU216HW,2013-05-04 06:36:00,
2013-05-04 01:41:00,46.3,44.6,29.53,North,0,5.4,5.6,94,0.00,,,0.00,WUHU216HW,2013-05-04 06:41:00,
2013-05-04 01:46:00,46.3,44.6,29.53,North,0,4.5,5.6,94,0.00,,,0.00,WUHU216HW,2013-05-04 06:46:00,
2013-05-04 01:51:00,46.3,44.6,29.53,NNE,23,3.4,5.4,94,0.00,,,0.00,WUHU216HW,2013-05-04 06:51:00,
2013-05-04 01:56:00,46.3,44.6,29.53,NNE,23,2.9,4.9,94,0.00,,,0.00,WUHU216HW,2013-05-04 06:56:00,
2013-05-04 02:01:00,46.4,44.8,29.53,ENE,68,4.3,4.3,94,0.00,,,0.00,WUHU216HW,2013-05-04 07:01:00,
2013-05-04 02:06:00,46.4,44.8,29.53,NE,45,4.9,4.9,94,0.00,,,0.00,WUHU216HW,2013-05-04 07:06:00,
2013-05-04 02:11:00,46.4,44.8,29.53,North,0,3.1,5.6,94,0.00,,,0.00,WUHU216HW,2013-05-04 07:11:00,
2013-05-04 02:16:00,46.4,44.8,29.53,NE,45,6.0,6.0,94,0.00,,,0.00,WUHU216HW,2013-05-04 07:16:00,
2013-05-04 02:21:00,46.3,44.6,29.53,NNE,23,4.7,6.0,94,0.00,,,0.00,WUHU216HW,2013-05-04 07:21:00,
2013-05-04 02:26:00,46.3,44.6,29.53,North,0,5.8,6.0,94,0.01,,,0.01,WUHU216HW,2013-05-04 07:26:00,
2013-05-04 02:31:00,46.1,44.7,29.52,North,0,5.8,6.3,95,0.02,,,0.02,WUHU216HW,2013-05-04 07:31:00,
2013-05-04 02:36:00,46.1,44.5,29.52,North,0,6.3,8.1,94,0.02,,,0.02,WUHU216HW,2013-05-04 07:36:00,
2013-05-04 02:41:00,45.9,44.3,29.52,North,0,3.4,8.1,94,0.02,,,0.02,WUHU216HW,2013-05-04 07:41:00,
2013-05-04 02:46:00,45.9,44.3,29.52,NNE,23,6.3,6.3,94,0.02,,,0.02,WUHU216HW,2013-05-04 07:46:00,
2013-05-04 02:51:00,45.9,44.3,29.52,North,0,6.7,7.2,94,0.02,,,0.02,WUHU216HW,2013-05-04 07:51:00,
2013-05-04 02:56:00,45.9,44.3,29.52,North,0,8.1,8.1,94,0.02,,,0.02,WUHU216HW,2013-05-04 07:56:00,
2013-05-04 03:01:00,45.7,44.1,29.52,North,0,4.7,8.1,94,0.02,,,0.02,WUHU216HW,2013-05-04 08:01:00,
2013-05-04 03:06:00,45.9,44.3,29.51,North,0,7.2,8.1,94,0.02,,,0.02,WUHU216HW,2013-05-04 08:06:00,
2013-05-04 03:11:00,45.7,44.1,29.52,North,0,6.3,7.2,94,0.02,,,0.02,WUHU216HW,2013-05-04 08:11:00,
2013-05-04 03:16:00,45.7,44.1,29.52,North,0,7.4,8.1,94,0.02,,,0.02,WUHU216HW,2013-05-04 08:16:00,
2013-05-04 03:21:00,45.7,44.1,29.52,North,0,7.6,8.1,94,0.01,,,0.02,WUHU216HW,2013-05-04 08:21:00,
2013-05-04 03:26:00,45.7,44.1,29.51,NNE,23,6.3,8.1,94,0.01,,,0.02,WUHU216HW,2013-05-04 08:26:00,
2013-05-04 03:31:00,45.7,44.1,29.52,North,0,6.3,7.6,94,0.00,,,0.02,WUHU216HW,2013-05-04 08:31:00,
2013-05-04 03:36:00,45.7,44.1,29.52,North,0,4.0,6.3,94,0.00,,,0.02,WUHU216HW,2013-05-04 08:36:00,
2013-05-04 03:41:00,45.7,43.8,29.52,North,0,2.7,6.3,93,0.00,,,0.02,WUHU216HW,2013-05-04 08:41:00,
2013-05-04 03:46:00,45.5,43.9,29.51,North,0,4.5,4.5,94,0.00,,,0.02,WUHU216HW,2013-05-04 08:46:00,
2013-05-04 03:51:00,45.5,43.7,29.52,North,0,4.0,4.5,93,0.00,,,0.02,WUHU216HW,2013-05-04 08:51:00,
2013-05-04 03:56:00,45.5,43.7,29.52,NNE,23,6.3,8.3,93,0.00,,,0.02,WUHU216HW,2013-05-04 08:56:00,
2013-05-04 04:01:00,45.7,43.8,29.52,North,0,5.1,8.5,93,0.00,,,0.02,WUHU216HW,2013-05-04 09:01:00,
2013-05-04 04:06:00,45.5,43.7,29.53,ESE,113,0.9,8.5,93,0.00,,,0.02,WUHU216HW,2013-05-04 09:06:00,
2013-05-04 04:11:00,45.7,43.8,29.53,NNE,23,4.5,6.3,93,0.00,,,0.02,WUHU216HW,2013-05-04 09:11:00,
2013-05-04 04:16:00,45.5,43.7,29.53,NE,45,7.6,7.6,93,0.01,,,0.03,WUHU216HW,2013-05-04 09:16:00,
2013-05-04 04:21:00,45.4,43.7,29.52,NE,45,4.7,7.6,94,0.04,,,0.06,WUHU216HW,2013-05-04 09:21:00,
2013-05-04 04:26:00,45.2,43.6,29.52,North,0,9.2,9.2,94,0.06,,,0.08,WUHU216HW,2013-05-04 09:26:00,
2013-05-04 04:31:00,45.2,43.6,29.52,North,0,6.3,9.2,94,0.09,,,0.11,WUHU216HW,2013-05-04 09:31:00,
2013-05-04 04:36:00,45.0,43.4,29.52,North,0,8.3,9.2,94,0.10,,,0.12,WUHU216HW,2013-05-04 09:36:00,
2013-05-04 04:41:00,45.0,43.7,29.52,NNE,23,9.8,9.8,95,0.10,,,0.12,WUHU216HW,2013-05-04 09:41:00,
2013-05-04 04:46:00,45.0,43.7,29.53,North,0,4.0,9.8,95,0.10,,,0.12,WUHU216HW,2013-05-04 09:46:00,
2013-05-04 04:51:00,44.8,43.5,29.53,NE,45,4.5,9.8,95,0.10,,,0.12,WUHU216HW,2013-05-04 09:51:00,
2013-05-04 04:56:00,44.6,43.3,29.53,North,0,3.6,5.4,95,0.10,,,0.12,WUHU216HW,2013-05-04 09:56:00,
2013-05-04 05:01:00,44.6,43.3,29.53,North,0,7.6,7.6,95,0.10,,,0.12,WUHU216HW,2013-05-04 10:01:00,
2013-05-04 05:06:00,44.3,42.9,29.53,NNE,23,5.8,7.6,95,0.10,,,0.12,WUHU216HW,2013-05-04 10:06:00,
2013-05-04 05:11:00,44.3,42.9,29.53,North,0,5.8,7.6,95,0.10,,,0.12,WUHU216HW,2013-05-04 10:11:00,
2013-05-04 05:16:00,44.1,42.8,29.53,North,0,5.6,5.8,95,0.06,,,0.12,WUHU216HW,2013-05-04 10:16:00,
2013-05-04 05:21:00,44.1,42.8,29.53,North,0,4.7,6.0,95,0.05,,,0.12,WUHU216HW,2013-05-04 10:21:00,
2013-05-04 05:26:00,43.9,42.6,29.53,North,0,4.7,6.0,95,0.04,,,0.12,WUHU216HW,2013-05-04 10:26:00,
2013-05-04 05:31:00,43.9,42.6,29.53,NNE,23,4.5,5.6,95,0.00,,,0.12,WUHU216HW,2013-05-04 10:31:00,
2013-05-04 05:36:00,43.9,42.6,29.54,North,0,4.0,5.6,95,0.00,,,0.12,WUHU216HW,2013-05-04 10:36:00,
2013-05-04 05:41:00,43.7,42.4,29.54,NNE,23,3.8,5.4,95,0.00,,,0.12,WUHU216HW,2013-05-04 10:41:00,
2013-05-04 05:46:00,43.7,42.4,29.54,North,0,4.3,4.3,95,0.00,,,0.12,WUHU216HW,2013-05-04 10:46:00,
2013-05-04 05:51:00,43.7,42.4,29.54,North,0,4.9,4.9,95,0.00,,,0.12,WUHU216HW,2013-05-04 10:51:00,
2013-05-04 05:56:00,43.7,42.1,29.54,North,0,6.0,6.0,94,0.00,,,0.12,WUHU216HW,2013-05-04 10:56:00,
2013-05-04 06:01:00,43.6,42.2,29.54,North,0,6.0,6.7,95,0.00,,,0.12,WUHU216HW,2013-05-04 11:01:00,
2013-05-04 06:06:00,43.6,42.2,29.55,North,0,5.4,6.7,95,0.00,,,0.12,WUHU216HW,2013-05-04 11:06:00,
2013-05-04 06:11:00,43.6,42.2,29.54,North,0,5.4,6.3,95,0.00,,,0.12,WUHU216HW,2013-05-04 11:11:00,
2013-05-04 06:16:00,43.6,42.2,29.55,North,0,6.7,6.7,95,0.00,,,0.12,WUHU216HW,2013-05-04 11:16:00,
2013-05-04 06:21:00,43.7,42.4,29.54,North,0,4.9,6.9,95,0.00,,,0.12,WUHU216HW,2013-05-04 11:21:00,
2013-05-04 06:26:00,43.7,42.4,29.55,North,0,4.7,6.9,95,0.00,,,0.12,WUHU216HW,2013-05-04 11:26:00,
2013-05-04 06:31:00,43.9,42.6,29.54,North,0,6.5,6.5,95,0.00,,,0.12,WUHU216HW,2013-05-04 11:31:00,
2013-05-04 06:36:00,43.7,42.4,29.55,NNE,23,5.4,6.7,95,0.00,,,0.12,WUHU216HW,2013-05-04 11:36:00,
2013-05-04 06:41:00,43.9,42.6,29.55,North,0,5.4,6.7,95,0.00,,,0.12,WUHU216HW,2013-05-04 11:41:00,
2013-05-04 06:46:00,43.9,42.6,29.55,North,0,6.3,6.3,95,0.00,,,0.12,WUHU216HW,2013-05-04 11:46:00,
2013-05-04 06:51:00,43.9,42.6,29.55,North,0,6.3,6.3,95,0.00,,,0.12,WUHU216HW,2013-05-04 11:51:00,
2013-05-04 06:56:00,44.1,42.8,29.55,North,0,4.5,6.3,95,0.00,,,0.12,WUHU216HW,2013-05-04 11:56:00,
2013-05-04 07:01:00,44.3,42.9,29.55,North,0,2.7,6.3,95,0.00,,,0.12,WUHU216HW,2013-05-04 12:01:00,
2013-05-04 07:07:00,44.3,42.9,29.55,North,0,5.4,6.0,95,0.00,,,0.12,WUHU216HW,2013-05-04 12:07:00,
2013-05-04 07:12:00,44.5,43.1,29.56,NE,45,5.6,6.0,95,0.00,,,0.12,WUHU216HW,2013-05-04 12:12:00,
2013-05-04 07:17:00,44.8,43.5,29.56,North,0,7.2,7.2,95,0.00,,,0.12,WUHU216HW,2013-05-04 12:17:00,
2013-05-04 07:22:00,45.0,43.7,29.56,North,0,5.8,7.2,95,0.00,,,0.12,WUHU216HW,2013-05-04 12:22:00,
2013-05-04 07:27:00,45.2,43.8,29.56,North,0,6.0,7.6,95,0.00,,,0.12,WUHU216HW,2013-05-04 12:27:00,
2013-05-04 07:33:00,45.5,44.2,29.56,North,0,6.3,7.6,95,0.00,,,0.12,WUHU216HW,2013-05-04 12:33:00,
2013-05-04 07:38:00,45.9,44.6,29.56,North,0,4.0,6.3,95,0.00,,,0.12,WUHU216HW,2013-05-04 12:38:00,
2013-05-04 07:43:00,46.1,44.7,29.56,NNE,23,7.8,7.8,95,0.00,,,0.12,WUHU216HW,2013-05-04 12:43:00,
2013-05-04 07:48:00,46.1,44.5,29.56,North,0,3.4,7.8,94,0.00,,,0.12,WUHU216HW,2013-05-04 12:48:00,
2013-05-04 07:53:00,46.6,45.0,29.56,NNE,23,6.0,7.8,94,0.00,,,0.12,WUHU216HW,2013-05-04 12:53:00,
2013-05-04 07:58:00,46.8,45.2,29.56,NNW,338,4.0,6.0,94,0.00,,,0.12,WUHU216HW,2013-05-04 12:58:00,
2013-05-04 08:03:00,47.2,45.8,29.56,NNE,23,2.5,6.0,95,0.00,,,0.12,WUHU216HW,2013-05-04 13:03:00,
2013-05-04 08:08:00,47.5,46.2,29.56,NNE,23,7.2,8.1,95,0.00,,,0.12,WUHU216HW,2013-05-04 13:08:00,
2013-05-04 08:13:00,47.9,46.3,29.56,North,0,6.3,8.1,94,0.00,,,0.12,WUHU216HW,2013-05-04 13:13:00,
2013-05-04 08:18:00,48.1,46.4,29.56,NNE,23,7.2,7.6,94,0.00,,,0.12,WUHU216HW,2013-05-04 13:18:00,
2013-05-04 08:23:00,47.9,46.3,29.56,NNE,23,6.3,7.2,94,0.00,,,0.12,WUHU216HW,2013-05-04 13:23:00,
2013-05-04 08:28:00,48.1,46.4,29.56,NNE,23,6.3,8.3,94,0.00,,,0.12,WUHU216HW,2013-05-04 13:28:00,
2013-05-04 08:33:00,48.1,46.4,29.57,North,0,4.7,8.3,94,0.00,,,0.12,WUHU216HW,2013-05-04 13:33:00,
2013-05-04 08:38:00,48.2,46.6,29.56,North,0,5.6,6.9,94,0.00,,,0.12,WUHU216HW,2013-05-04 13:38:00,
2013-05-04 08:43:00,48.2,46.6,29.57,North,0,6.0,6.0,94,0.00,,,0.12,WUHU216HW,2013-05-04 13:43:00,
2013-05-04 08:48:00,48.6,47.0,29.57,North,0,5.8,7.6,94,0.00,,,0.12,WUHU216HW,2013-05-04 13:48:00,
2013-05-04 08:53:00,48.8,47.2,29.56,North,0,7.6,8.5,94,0.00,,,0.12,WUHU216HW,2013-05-04 13:53:00,
2013-05-04 08:58:00,49.1,47.4,29.56,North,0,7.6,8.5,94,0.00,,,0.12,WUHU216HW,2013-05-04 13:58:00,
2013-05-04 09:03:00,49.3,47.6,29.56,North,0,8.5,8.5,94,0.00,,,0.12,WUHU216HW,2013-05-04 14:03:00,
2013-05-04 09:08:00,49.9,47.6,29.57,North,0,6.0,8.5,92,0.00,,,0.12,WUHU216HW,2013-05-04 14:08:00,
2013-05-04 09:13:00,50.0,48.1,29.57,North,0,6.3,8.5,93,0.00,,,0.12,WUHU216HW,2013-05-04 14:13:00,
2013-05-04 09:18:00,50.0,48.1,29.57,NNE,23,5.8,6.3,93,0.00,,,0.12,WUHU216HW,2013-05-04 14:18:00,
2013-05-04 09:23:00,50.2,47.9,29.56,North,0,6.0,6.3,92,0.00,,,0.12,WUHU216HW,2013-05-04 14:23:00,
2013-05-04 09:28:00,50.4,47.8,29.57,North,0,6.9,6.9,91,0.00,,,0.12,WUHU216HW,2013-05-04 14:28:00,
2013-05-04 09:33:00,50.8,48.2,29.57,North,0,4.7,6.9,91,0.00,,,0.12,WUHU216HW,2013-05-04 14:33:00,
2013-05-04 09:38:00,50.9,48.3,29.57,NNE,23,4.7,6.9,91,0.00,,,0.12,WUHU216HW,2013-05-04 14:38:00,
2013-05-04 09:43:00,51.3,48.4,29.57,NNE,23,6.3,7.6,90,0.00,,,0.12,WUHU216HW,2013-05-04 14:43:00,
2013-05-04 09:48:00,51.8,49.0,29.57,North,0,6.9,7.6,90,0.00,,,0.12,WUHU216HW,2013-05-04 14:48:00,
2013-05-04 09:53:00,52.0,48.9,29.57,North,0,6.3,6.9,89,0.00,,,0.12,WUHU216HW,2013-05-04 14:53:00,
2013-05-04 09:58:00,52.4,49.2,29.57,North,0,4.5,6.9,89,0.00,,,0.12,WUHU216HW,2013-05-04 14:58:00,
2013-05-04 10:03:00,52.6,49.4,29.57,North,0,6.7,6.7,89,0.00,,,0.12,WUHU216HW,2013-05-04 15:03:00,
2013-05-04 10:08:00,52.9,49.8,29.57,North,0,6.9,6.9,89,0.00,,,0.12,WUHU216HW,2013-05-04 15:08:00,
2013-05-04 10:13:00,53.5,50.3,29.57,North,0,7.4,7.4,89,0.00,,,0.12,WUHU216HW,2013-05-04 15:13:00,
2013-05-04 10:18:00,53.6,50.1,29.57,North,0,6.7,7.4,88,0.00,,,0.12,WUHU216HW,2013-05-04 15:18:00,
2013-05-04 10:23:00,54.0,50.2,29.57,NNE,23,7.4,7.4,87,0.00,,,0.12,WUHU216HW,2013-05-04 15:23:00,
2013-05-04 10:28:00,54.4,50.0,29.58,North,0,5.6,7.4,85,0.00,,,0.12,WUHU216HW,2013-05-04 15:28:00,
2013-05-04 10:33:00,54.7,50.2,29.58,North,0,4.7,7.4,85,0.00,,,0.12,WUHU216HW,2013-05-04 15:33:00,
2013-05-04 10:38:00,55.1,50.6,29.58,NE,45,6.0,6.3,85,0.00,,,0.12,WUHU216HW,2013-05-04 15:38:00,
2013-05-04 10:43:00,55.6,50.8,29.58,NNE,23,4.0,6.0,84,0.00,,,0.12,WUHU216HW,2013-05-04 15:43:00,
2013-05-04 10:48:00,56.2,51.3,29.58,NNE,23,2.5,6.0,84,0.00,,,0.12,WUHU216HW,2013-05-04 15:48:00,
2013-05-04 10:53:00,56.5,50.4,29.58,ENE,68,3.1,4.0,80,0.00,,,0.12,WUHU216HW,2013-05-04 15:53:00,
2013-05-04 10:58:00,56.7,51.0,29.58,North,0,4.0,4.0,81,0.00,,,0.12,WUHU216HW,2013-05-04 15:58:00,
2013-05-04 11:03:00,57.1,51.9,29.58,NE,45,1.3,4.0,83,0.00,,,0.12,WUHU216HW,2013-05-04 16:03:00,
2013-05-04 11:08:00,57.4,51.7,29.58,North,0,7.2,7.2,81,0.00,,,0.12,WUHU216HW,2013-05-04 16:08:00,
2013-05-04 11:13:00,58.1,52.7,29.58,North,0,4.3,7.2,82,0.00,,,0.12,WUHU216HW,2013-05-04 16:13:00,
2013-05-04 11:18:00,58.3,52.2,29.58,North,0,3.6,7.2,80,0.00,,,0.12,WUHU216HW,2013-05-04 16:18:00,
2013-05-04 11:23:00,58.5,51.7,29.58,North,0,6.3,6.3,78,0.00,,,0.12,WUHU216HW,2013-05-04 16:23:00,
2013-05-04 11:28:00,58.7,52.9,29.58,North,0,2.9,7.6,81,0.00,,,0.12,WUHU216HW,2013-05-04 16:28:00,
2013-05-04 11:33:00,58.7,52.2,29.58,NNE,23,4.0,7.6,79,0.00,,,0.12,WUHU216HW,2013-05-04 16:33:00,
2013-05-04 11:38:00,59.6,52.7,29.58,North,0,2.5,6.7,78,0.00,,,0.12,WUHU216HW,2013-05-04 16:38:00,
2013-05-04 11:43:00,59.9,53.8,29.58,North,0,5.4,6.7,80,0.00,,,0.12,WUHU216HW,2013-05-04 16:43:00,
2013-05-04 11:48:00,60.1,53.3,29.58,North,0,5.4,5.6,78,0.00,,,0.12,WUHU216HW,2013-05-04 16:48:00,
2013-05-04 11:54:00,60.7,53.8,29.58,NNE,23,3.4,5.4,78,0.00,,,0.12,WUHU216HW,2013-05-04 16:54:00,
2013-05-04 11:59:00,60.8,53.3,29.58,North,0,5.4,5.4,76,0.00,,,0.12,WUHU216HW,2013-05-04 16:59:00,
2013-05-04 12:04:00,61.4,54.5,29.57,ENE,68,3.1,5.4,78,0.00,,,0.12,WUHU216HW,2013-05-04 17:04:00,
2013-05-04 12:09:00,61.6,54.3,29.57,North,0,5.8,5.8,77,0.00,,,0.12,WUHU216HW,2013-05-04 17:09:00,
2013-05-04 12:14:00,61.9,54.6,29.57,NNE,23,2.0,5.8,77,0.00,,,0.12,WUHU216HW,2013-05-04 17:14:00,
2013-05-04 12:19:00,62.5,55.1,29.57,North,0,6.5,6.5,77,0.00,,,0.12,WUHU216HW,2013-05-04 17:19:00,
2013-05-04 12:24:00,62.6,55.3,29.57,North,0,5.1,6.5,77,0.00,,,0.12,WUHU216HW,2013-05-04 17:24:00,
2013-05-04 12:29:00,63.0,54.9,29.57,NNE,23,2.2,6.5,75,0.00,,,0.12,WUHU216HW,2013-05-04 17:29:00,
2013-05-04 12:34:00,63.0,55.3,29.57,North,0,1.8,5.1,76,0.00,,,0.12,WUHU216HW,2013-05-04 17:34:00,
2013-05-04 12:39:00,63.2,55.4,29.57,North,0,4.7,6.3,76,0.00,,,0.12,WUHU216HW,2013-05-04 17:39:00,
2013-05-04 12:44:00,63.5,54.4,29.57,NNE,23,2.5,6.3,72,0.00,,,0.12,WUHU216HW,2013-05-04 17:44:00,
2013-05-04 12:49:00,63.7,55.3,29.57,NNE,23,6.0,6.0,74,0.00,,,0.12,WUHU216HW,2013-05-04 17:49:00,
2013-05-04 12:54:00,64.1,55.6,29.56,NNW,338,1.8,6.0,74,0.00,,,0.12,WUHU216HW,2013-05-04 17:54:00,
2013-05-04 12:59:00,64.1,54.5,29.57,NNE,23,2.9,6.0,71,0.00,,,0.12,WUHU216HW,2013-05-04 17:59:00,
2013-05-04 13:04:00,64.4,55.3,29.56,ENE,68,1.8,2.9,72,0.00,,,0.12,WUHU216HW,2013-05-04 18:04:00,
2013-05-04 13:09:00,65.2,54.4,29.56,East,90,1.3,3.8,68,0.00,,,0.12,WUHU216HW,2013-05-04 18:09:00,
2013-05-04 13:14:00,65.3,55.4,29.56,NNE,23,4.7,4.7,70,0.00,,,0.12,WUHU216HW,2013-05-04 18:14:00,
2013-05-04 13:19:00,66.2,56.2,29.56,North,0,4.5,6.9,70,0.00,,,0.12,WUHU216HW,2013-05-04 18:19:00,
2013-05-04 13:24:00,66.6,56.5,29.56,NNE,23,5.1,6.9,70,0.00,,,0.12,WUHU216HW,2013-05-04 18:24:00,
2013-05-04 13:29:00,66.8,57.4,29.56,North,0,7.4,7.4,72,0.00,,,0.12,WUHU216HW,2013-05-04 18:29:00,
2013-05-04 13:34:00,67.0,56.9,29.55,North,0,10.5,10.5,70,0.00,,,0.12,WUHU216HW,2013-05-04 18:34:00,
2013-05-04 13:39:00,66.8,56.7,29.55,NNE,23,3.8,10.5,70,0.00,,,0.12,WUHU216HW,2013-05-04 18:39:00,
2013-05-04 13:44:00,66.6,54.5,29.55,North,0,4.7,10.5,65,0.00,,,0.12,WUHU216HW,2013-05-04 18:44:00,
2013-05-04 13:49:00,66.6,54.5,29.55,ENE,68,6.7,6.7,65,0.00,,,0.12,WUHU216HW,2013-05-04 18:49:00,
2013-05-04 13:54:00,67.3,56.4,29.55,North,0,6.5,6.7,68,0.00,,,0.12,WUHU216HW,2013-05-04 18:54:00,
2013-05-04 13:59:00,68.0,57.1,29.55,NNE,23,6.0,8.7,68,0.00,,,0.12,WUHU216HW,2013-05-04 18:59:00,
2013-05-04 14:04:00,67.9,53.5,29.55,NE,45,2.7,8.7,60,0.00,,,0.12,WUHU216HW,2013-05-04 19:04:00,
2013-05-04 14:09:00,67.7,55.0,29.55,North,0,2.9,4.9,64,0.00,,,0.12,WUHU216HW,2013-05-04 19:09:00,
2013-05-04 14:14:00,68.8,55.6,29.55,NE,45,4.0,8.1,63,0.00,,,0.12,WUHU216HW,2013-05-04 19:14:00,
2013-05-04 14:19:00,69.7,56.9,29.55,ENE,68,7.6,8.1,64,0.00,,,0.12,WUHU216HW,2013-05-04 19:19:00,
2013-05-04 14:24:00,69.5,55.1,29.54,NE,45,5.1,7.6,60,0.00,,,0.12,WUHU216HW,2013-05-04 19:24:00,
2013-05-04 14:29:00,69.3,53.9,29.55,ENE,68,3.4,7.6,58,0.00,,,0.12,WUHU216HW,2013-05-04 19:29:00,
2013-05-04 14:34:00,69.3,54.4,29.54,ENE,68,1.8,6.5,59,0.00,,,0.12,WUHU216HW,2013-05-04 19:34:00,
2013-05-04 14:39:00,69.8,54.9,29.54,NE,45,5.4,6.9,59,0.00,,,0.12,WUHU216HW,2013-05-04 19:39:00,
2013-05-04 14:44:00,69.8,53.5,29.54,NE,45,4.3,7.4,56,0.00,,,0.12,WUHU216HW,2013-05-04 19:44:00,
2013-05-04 14:49:00,69.8,54.9,29.54,NE,45,8.5,8.5,59,0.00,,,0.12,WUHU216HW,2013-05-04 19:49:00,
2013-05-04 14:54:00,70.2,53.7,29.54,ESE,113,6.3,8.5,56,0.00,,,0.12,WUHU216HW,2013-05-04 19:54:00,
2013-05-04 14:59:00,71.3,54.7,29.54,ESE,113,6.9,8.7,56,0.00,,,0.12,WUHU216HW,2013-05-04 19:59:00,
2013-05-04 15:04:00,71.1,54.5,29.54,SE,135,6.9,8.7,56,0.00,,,0.12,WUHU216HW,2013-05-04 20:04:00,
2013-05-04 15:09:00,71.3,54.2,29.53,ESE,113,5.1,6.9,55,0.00,,,0.12,WUHU216HW,2013-05-04 20:09:00,
2013-05-04 15:14:00,71.1,53.0,29.53,ESE,113,4.3,6.9,53,0.00,,,0.12,WUHU216HW,2013-05-04 20:14:00,
2013-05-04 15:19:00,71.3,54.2,29.54,ESE,113,8.1,8.1,55,0.00,,,0.12,WUHU216HW,2013-05-04 20:19:00,
2013-05-04 15:24:00,71.6,54.5,29.54,ESE,113,11.4,11.4,55,0.00,,,0.12,WUHU216HW,2013-05-04 20:24:00,
2013-05-04 15:29:00,72.0,53.8,29.54,SE,135,13.0,13.0,53,0.00,,,0.12,WUHU216HW,2013-05-04 20:29:00,
2013-05-04 15:34:00,72.5,53.8,29.54,ENE,68,5.8,13.0,52,0.00,,,0.12,WUHU216HW,2013-05-04 20:34:00,
2013-05-04 15:39:00,72.5,52.8,29.54,NNE,23,3.8,13.0,50,0.00,,,0.12,WUHU216HW,2013-05-04 20:39:00,
2013-05-04 15:44:00,72.4,53.2,29.53,ESE,113,5.1,8.9,51,0.00,,,0.12,WUHU216HW,2013-05-04 20:44:00,
2013-05-04 15:49:00,72.2,50.8,29.53,North,0,7.8,8.9,47,0.00,,,0.12,WUHU216HW,2013-05-04 20:49:00,
2013-05-04 15:54:00,72.0,52.4,29.54,ENE,68,7.6,7.8,50,0.00,,,0.12,WUHU216HW,2013-05-04 20:54:00,
2013-05-04 15:59:00,72.0,52.4,29.54,North,0,4.7,7.8,50,0.00,,,0.12,WUHU216HW,2013-05-04 20:59:00,
2013-05-04 16:04:00,72.0,52.4,29.54,North,0,4.7,7.6,50,0.00,,,0.12,WUHU216HW,2013-05-04 21:04:00,
2013-05-04 16:09:00,72.0,52.4,29.54,WNW,293,4.7,7.4,50,0.00,,,0.12,WUHU216HW,2013-05-04 21:09:00,
2013-05-04 16:14:00,72.0,51.8,29.54,SW,225,5.1,7.4,49,0.00,,,0.12,WUHU216HW,2013-05-04 21:14:00,
2013-05-04 16:19:00,72.2,52.5,29.54,ESE,113,7.6,7.6,50,0.00,,,0.12,WUHU216HW,2013-05-04 21:19:00,
2013-05-04 16:24:00,71.8,52.2,29.54,NE,45,5.4,7.6,50,0.00,,,0.12,WUHU216HW,2013-05-04 21:24:00,
2013-05-04 16:29:00,72.0,53.4,29.54,SE,135,5.1,7.6,52,0.00,,,0.12,WUHU216HW,2013-05-04 21:29:00,
2013-05-04 16:34:00,72.4,53.2,29.54,ESE,113,12.5,12.5,51,0.00,,,0.12,WUHU216HW,2013-05-04 21:34:00,
2013-05-04 16:39:00,72.2,52.5,29.54,SE,135,6.3,12.5,50,0.00,,,0.12,WUHU216HW,2013-05-04 21:39:00,
2013-05-04 16:44:00,72.4,52.1,29.54,ESE,113,6.3,12.5,49,0.00,,,0.12,WUHU216HW,2013-05-04 21:44:00,
2013-05-04 16:49:00,72.4,52.1,29.54,SE,135,6.3,6.3,49,0.00,,,0.12,WUHU216HW,2013-05-04 21:49:00,
2013-05-04 16:54:00,72.4,52.1,29.54,ENE,68,6.7,8.9,49,0.00,,,0.12,WUHU216HW,2013-05-04 21:54:00,
2013-05-04 16:59:00,72.2,51.9,29.54,SE,135,6.7,8.9,49,0.00,,,0.12,WUHU216HW,2013-05-04 21:59:00,
2013-05-04 17:04:00,72.0,52.4,29.55,SE,135,6.5,7.6,50,0.00,,,0.12,WUHU216HW,2013-05-04 22:04:00,
2013-05-04 17:09:00,72.0,52.4,29.55,SE,135,2.9,6.7,50,0.00,,,0.12,WUHU216HW,2013-05-04 22:09:00,
2013-05-04 17:14:00,72.2,52.5,29.55,ESE,113,7.6,7.6,50,0.00,,,0.12,WUHU216HW,2013-05-04 22:14:00,
2013-05-04 17:19:00,72.2,53.0,29.55,ENE,68,3.4,7.6,51,0.00,,,0.12,WUHU216HW,2013-05-04 22:19:00,
2013-05-04 17:24:00,72.2,52.5,29.55,East,90,2.2,7.6,50,0.00,,,0.12,WUHU216HW,2013-05-04 22:24:00,
2013-05-04 17:29:00,71.1,51.6,29.55,ENE,68,6.7,6.7,50,0.00,,,0.12,WUHU216HW,2013-05-04 22:29:00,
2013-05-04 17:34:00,70.7,51.8,29.55,SE,135,5.4,6.7,51,0.00,,,0.12,WUHU216HW,2013-05-04 22:34:00,
2013-05-04 17:39:00,70.6,51.6,29.55,ESE,113,5.6,6.7,51,0.00,,,0.12,WUHU216HW,2013-05-04 22:39:00,
2013-05-04 17:44:00,70.6,51.6,29.55,ENE,68,2.2,5.6,51,0.00,,,0.12,WUHU216HW,2013-05-04 22:44:00,
2013-05-04 17:49:00,70.4,51.9,29.55,ENE,68,2.0,5.6,52,0.00,,,0.12,WUHU216HW,2013-05-04 22:49:00,
2013-05-04 17:54:00,69.7,50.8,29.54,East,90,3.4,4.5,51,0.00,,,0.12,WUHU216HW,2013-05-04 22:54:00,
2013-05-04 17:59:00,69.7,51.2,29.54,SE,135,2.7,4.5,52,0.00,,,0.12,WUHU216HW,2013-05-04 22:59:00,
2013-05-04 18:04:00,69.5,51.1,29.54,ESE,113,2.2,3.4,52,0.00,,,0.12,WUHU216HW,2013-05-04 23:04:00,
2013-05-04 18:09:00,69.3,51.4,29.54,NE,45,0.4,2.7,53,0.00,,,0.12,WUHU216HW,2013-05-04 23:09:00,
2013-05-04 18:14:00,68.9,51.1,29.55,ESE,113,1.6,2.2,53,0.00,,,0.12,WUHU216HW,2013-05-04 23:14:00,
2013-05-04 18:19:00,68.4,50.6,29.55,NNE,23,1.8,5.8,53,0.00,,,0.12,WUHU216HW,2013-05-04 23:19:00,
2013-05-04 18:24:00,68.0,49.8,29.55,ENE,68,2.9,5.8,52,0.00,,,0.12,WUHU216HW,2013-05-04 23:24:00,
2013-05-04 18:29:00,67.7,50.4,29.55,SE,135,3.1,3.1,54,0.00,,,0.12,WUHU216HW,2013-05-04 23:29:00,
2013-05-04 18:34:00,67.7,50.4,29.55,NE,45,3.8,3.8,54,0.00,,,0.12,WUHU216HW,2013-05-04 23:34:00,
2013-05-04 18:39:00,67.3,50.6,29.55,ENE,68,0.9,3.8,55,0.00,,,0.12,WUHU216HW,2013-05-04 23:39:00,
2013-05-04 18:44:00,67.0,49.8,29.55,East,90,4.0,4.0,54,0.00,,,0.12,WUHU216HW,2013-05-04 23:44:00,
2013-05-04 18:49:00,66.8,50.0,29.55,NNE,23,3.4,4.0,55,0.00,,,0.12,WUHU216HW,2013-05-04 23:49:00,
2013-05-04 18:54:00,66.2,50.0,29.55,NNE,23,3.6,4.0,56,0.00,,,0.12,WUHU216HW,2013-05-04 23:54:00,
2013-05-04 18:59:00,65.5,49.9,29.55,NE,45,3.8,4.9,57,0.00,,,0.12,WUHU216HW,2013-05-04 23:59:00,
2013-05-04 19:04:00,65.2,50.0,29.56,NE,45,2.2,4.9,58,0.00,,,0.12,WUHU216HW,2013-05-05 00:04:00,
2013-05-04 19:09:00,64.6,50.0,29.56,NE,45,1.3,3.8,59,0.00,,,0.12,WUHU216HW,2013-05-05 00:09:00,
2013-05-04 19:14:00,64.4,50.2,29.56,NNE,23,1.3,2.2,60,0.00,,,0.12,WUHU216HW,2013-05-05 00:14:00,
2013-05-04 19:19:00,64.3,50.0,29.56,NE,45,1.8,1.8,60,0.00,,,0.12,WUHU216HW,2013-05-05 00:19:00,
2013-05-04 19:24:00,63.7,50.1,29.56,NNE,23,2.0,2.2,61,0.00,,,0.12,WUHU216HW,2013-05-05 00:24:00,
2013-05-04 19:29:00,63.4,49.7,29.56,NE,45,3.1,3.1,61,0.00,,,0.12,WUHU216HW,2013-05-05 00:29:00,
2013-05-04 19:34:00,63.2,50.0,29.56,NE,45,1.6,3.1,62,0.00,,,0.12,WUHU216HW,2013-05-05 00:34:00,
2013-05-04 19:39:00,62.6,49.9,29.56,NNE,23,2.2,3.1,63,0.00,,,0.12,WUHU216HW,2013-05-05 00:39:00,
2013-05-04 19:44:00,62.5,50.1,29.56,NNE,23,1.8,2.7,64,0.00,,,0.12,WUHU216HW,2013-05-05 00:44:00,
2013-05-04 19:49:00,62.1,49.8,29.56,NE,45,2.7,3.6,64,0.00,,,0.12,WUHU216HW,2013-05-05 00:49:00,
2013-05-04 19:54:00,61.9,49.6,29.56,ENE,68,3.6,3.6,64,0.00,,,0.12,WUHU216HW,2013-05-05 00:54:00,
2013-05-04 19:59:00,61.7,49.4,29.57,NE,45,2.0,3.6,64,0.00,,,0.12,WUHU216HW,2013-05-05 00:59:00,
2013-05-04 20:04:00,61.6,49.7,29.57,ENE,68,2.2,3.6,65,0.00,,,0.12,WUHU216HW,2013-05-05 01:04:00,
2013-05-04 20:09:00,61.0,49.2,29.57,NE,45,1.8,3.1,65,0.00,,,0.12,WUHU216HW,2013-05-05 01:09:00,
2013-05-04 20:14:00,60.8,49.1,29.57,NE,45,2.0,3.1,65,0.00,,,0.12,WUHU216HW,2013-05-05 01:14:00,
2013-05-04 20:19:00,60.5,48.7,29.57,NNE,23,1.3,2.0,65,0.00,,,0.12,WUHU216HW,2013-05-05 01:19:00,
2013-05-04 20:24:00,60.1,48.3,29.57,NNE,23,2.5,2.5,65,0.00,,,0.12,WUHU216HW,2013-05-05 01:24:00,
2013-05-04 20:29:00,59.9,48.6,29.57,NNE,23,2.9,2.9,66,0.00,,,0.12,WUHU216HW,2013-05-05 01:29:00,
2013-05-04 20:34:00,59.6,48.6,29.57,North,0,2.0,3.1,67,0.00,,,0.12,WUHU216HW,2013-05-05 01:34:00,
2013-05-04 20:39:00,59.4,48.4,29.58,North,0,3.4,3.6,67,0.00,,,0.12,WUHU216HW,2013-05-05 01:39:00,
2013-05-04 20:44:00,59.4,48.9,29.58,North,0,3.1,3.6,68,0.00,,,0.12,WUHU216HW,2013-05-05 01:44:00,
2013-05-04 20:49:00,59.4,48.9,29.58,North,0,3.6,3.6,68,0.00,,,0.12,WUHU216HW,2013-05-05 01:49:00,
2013-05-04 20:54:00,59.2,48.7,29.58,North,0,2.9,3.6,68,0.00,,,0.12,WUHU216HW,2013-05-05 01:54:00,
2013-05-04 20:59:00,59.2,48.7,29.58,NNE,23,2.5,3.6,68,0.00,,,0.12,WUHU216HW,2013-05-05 01:59:00,
2013-05-04 21:04:00,59.2,48.7,29.58,NNE,23,1.8,2.9,68,0.00,,,0.12,WUHU216HW,2013-05-05 02:04:00,
2013-05-04 21:09:00,59.2,48.7,29.58,NE,45,1.6,2.5,68,0.00,,,0.12,WUHU216HW,2013-05-05 02:09:00,
2013-05-04 21:14:00,59.0,48.5,29.58,NE,45,1.8,1.8,68,0.00,,,0.12,WUHU216HW,2013-05-05 02:14:00,
2013-05-04 21:19:00,59.0,48.5,29.58,ENE,68,1.6,1.8,68,0.00,,,0.12,WUHU216HW,2013-05-05 02:19:00,
2013-05-04 21:24:00,58.7,48.5,29.58,ENE,68,1.8,1.8,69,0.00,,,0.12,WUHU216HW,2013-05-05 02:24:00,
2013-05-04 21:29:00,58.7,48.5,29.58,ENE,68,1.3,1.8,69,0.00,,,0.12,WUHU216HW,2013-05-05 02:29:00,
2013-05-04 21:34:00,58.1,48.4,29.58,NE,45,1.1,1.8,70,0.00,,,0.12,WUHU216HW,2013-05-05 02:34:00,
2013-05-04 21:39:00,57.8,48.4,29.58,NE,45,0.0,1.1,71,0.00,,,0.12,WUHU216HW,2013-05-05 02:39:00,
2013-05-04 21:44:00,57.6,48.2,29.59,NE,45,0.0,1.1,71,0.00,,,0.12,WUHU216HW,2013-05-05 02:44:00,
2013-05-04 21:49:00,57.4,48.4,29.59,NE,45,0.0,0.0,72,0.00,,,0.12,WUHU216HW,2013-05-05 02:49:00,
2013-05-04 21:54:00,57.2,48.2,29.59,NE,45,0.0,0.0,72,0.00,,,0.12,WUHU216HW,2013-05-05 02:54:00,
2013-05-04 21:59:00,57.2,48.2,29.59,NE,45,1.8,1.8,72,0.00,,,0.12,WUHU216HW,2013-05-05 02:59:00,
2013-05-04 22:04:00,56.9,47.9,29.59,NNE,23,2.0,2.5,72,0.00,,,0.12,WUHU216HW,2013-05-05 03:04:00,
2013-05-04 22:09:00,56.7,47.4,29.58,NNE,23,2.2,2.7,71,0.00,,,0.12,WUHU216HW,2013-05-05 03:09:00,
2013-05-04 22:14:00,56.7,47.1,29.58,NNE,23,1.8,2.7,70,0.00,,,0.12,WUHU216HW,2013-05-05 03:14:00,
2013-05-04 22:19:00,56.5,46.9,29.58,NNE,23,2.0,2.5,70,0.00,,,0.12,WUHU216HW,2013-05-05 03:19:00,
2013-05-04 22:24:00,56.5,46.9,29.58,NNE,23,3.1,3.1,70,0.00,,,0.12,WUHU216HW,2013-05-05 03:24:00,
2013-05-04 22:29:00,56.3,46.7,29.58,NNE,23,2.2,3.1,70,0.00,,,0.12,WUHU216HW,2013-05-05 03:29:00,
2013-05-04 22:34:00,56.2,46.5,29.58,NNE,23,3.1,3.4,70,0.00,,,0.12,WUHU216HW,2013-05-05 03:34:00,
2013-05-04 22:39:00,56.0,46.4,29.58,North,0,5.4,5.4,70,0.00,,,0.12,WUHU216HW,2013-05-05 03:39:00,
2013-05-04 22:44:00,56.0,46.4,29.58,North,0,4.9,5.4,70,0.00,,,0.12,WUHU216HW,2013-05-05 03:44:00,
2013-05-04 22:49:00,55.8,46.3,29.58,NNE,23,2.5,5.4,70,0.00,,,0.12,WUHU216HW,2013-05-05 03:49:00,
2013-05-04 22:54:00,55.6,46.1,29.58,NNE,23,3.8,4.9,70,0.00,,,0.12,WUHU216HW,2013-05-05 03:54:00,
2013-05-04 22:59:00,55.4,45.9,29.58,NNE,23,1.6,3.8,70,0.00,,,0.12,WUHU216HW,2013-05-05 03:59:00,
2013-05-04 23:01:00,55.4,45.9,29.58,NNE,23,0.7,3.8,70,0.00,,,0.12,WUHU216HW,2013-05-05 04:01:00,
2013-05-04 23:06:00,55.3,45.7,29.58,NNE,23,1.6,2.0,70,0.00,,,0.12,WUHU216HW,2013-05-05 04:06:00,
2013-05-04 23:11:00,54.7,45.6,29.58,NNE,23,2.0,2.2,71,0.00,,,0.12,WUHU216HW,2013-05-05 04:11:00,
2013-05-04 23:16:00,54.7,45.6,29.58,NNE,23,1.8,2.2,71,0.00,,,0.12,WUHU216HW,2013-05-05 04:16:00,
2013-05-04 23:21:00,54.4,45.2,29.58,NNE,23,2.7,2.7,71,0.00,,,0.12,WUHU216HW,2013-05-05 04:21:00,
2013-05-04 23:26:00,54.4,45.2,29.58,NNE,23,2.5,2.7,71,0.00,,,0.12,WUHU216HW,2013-05-05 04:26:00,
2013-05-04 23:31:00,54.4,45.2,29.58,NNE,23,0.4,2.7,71,0.00,,,0.12,WUHU216HW,2013-05-05 04:31:00,
2013-05-04 23:36:00,54.0,45.2,29.58,NNE,23,0.0,2.5,72,0.00,,,0.12,WUHU216HW,2013-05-05 04:36:00,
2013-05-04 23:41:00,53.8,45.0,29.58,NNE,23,0.4,0.4,72,0.00,,,0.12,WUHU216HW,2013-05-05 04:41:00,
2013-05-04 23:46:00,53.5,45.0,29.58,NNE,23,2.0,2.2,73,0.00,,,0.12,WUHU216HW,2013-05-05 04:46:00,
2013-05-04 23:51:00,53.3,44.8,29.58,NNE,23,2.2,2.2,73,0.00,,,0.12,WUHU216HW,2013-05-05 04:51:00,
2013-05-04 23:56:00,53.3,44.5,29.58,NNE,23,2.0,2.2,72,0.00,,,0.12,WUHU216HW,2013-05-05 04:56:00,